TimePST,TemperatureF,Dew PointF,Humidity,Sea Level PressureIn,VisibilityMPH,Wind Direction,Wind SpeedMPH,Gust SpeedMPH,PrecipitationIn,Events,Conditions,WindDirDegrees,DateUTC
12:15 AM,32.0,32.0,100,29.95,1.8,West,8.1,-,N/A,Snow,Light Snow,260,2013-01-29 08:15:00
12:35 AM,32.0,32.0,100,29.96,1.2,West,8.1,-,0.01,Snow,Light Snow,260,2013-01-29 08:35:00
12:55 AM,32.0,32.0,100,29.95,1.8,West,10.4,-,0.01,Snow,Light Snow,260,2013-01-29 08:55:00
1:15 AM,32.0,32.0,100,29.96,1.8,West,8.1,-,N/A,Snow,Light Snow,260,2013-01-29 09:15:00
1:35 AM,32.0,32.0,100,29.96,1.8,West,8.1,-,N/A,Snow,Light Snow,260,2013-01-29 09:35:00
1:55 AM,32.0,32.0,100,29.97,1.5,West,8.1,-,N/A,Snow,Light Snow,260,2013-01-29 09:55:00
2:15 AM,32.0,32.0,100,29.97,1.8,West,8.1,-,0.01,Snow,Light Snow,260,2013-01-29 10:15:00
2:35 AM,32.0,32.0,100,29.97,2.5,West,9.2,-,0.01,Snow,Light Snow,260,2013-01-29 10:35:00
3:15 AM,32.0,32.0,100,29.98,1.5,West,10.4,-,N/A,Snow,Light Snow,260,2013-01-29 11:15:00
3:35 AM,32.0,32.0,100,29.98,1.5,West,11.5,-,N/A,Snow,Light Snow,260,2013-01-29 11:35:00
3:55 AM,32.0,32.0,100,29.99,1.5,West,11.5,-,N/A,Snow,Light Snow,260,2013-01-29 11:55:00
4:15 AM,32.0,32.0,100,30.00,1.8,West,9.2,-,N/A,Snow,Light Snow,260,2013-01-29 12:15:00
4:35 AM,32.0,32.0,100,30.00,1.8,West,10.4,-,N/A,Snow,Light Snow,270,2013-01-29 12:35:00
4:55 AM,32.0,32.0,100,30.01,2.5,West,12.7,-,0.01,Snow,Light Snow,270,2013-01-29 12:55:00
5:15 AM,32.0,32.0,100,30.01,1.8,West,12.7,17.3,N/A,Snow,Light Snow,260,2013-01-29 13:15:00
5:35 AM,32.0,32.0,100,30.02,1.8,West,10.4,-,N/A,Snow,Light Snow,260,2013-01-29 13:35:00
5:55 AM,32.0,32.0,100,30.03,2.0,West,9.2,-,N/A,Snow,Light Snow,260,2013-01-29 13:55:00
6:15 AM,32.0,32.0,100,30.04,1.5,West,9.2,-,N/A,Snow,Light Snow,270,2013-01-29 14:15:00
6:35 AM,32.0,32.0,100,30.03,1.5,West,9.2,-,N/A,Snow,Light Snow,270,2013-01-29 14:35:00
6:55 AM,32.0,32.0,100,30.05,3.0,West,8.1,-,N/A,Snow,Light Snow,270,2013-01-29 14:55:00
7:15 AM,32.0,32.0,100,30.06,1.0,West,8.1,-,N/A,Snow,Light Snow,260,2013-01-29 15:15:00
7:35 AM,32.0,32.0,100,30.08,0.8,West,9.2,-,0.01,Snow,Light Snow,270,2013-01-29 15:35:00
7:55 AM,32.0,32.0,100,30.08,0.5,West,9.2,-,0.01,Snow,Light Snow,260,2013-01-29 15:55:00
8:15 AM,32.0,32.0,100,30.10,1.0,West,9.2,-,N/A,Snow,Light Snow,270,2013-01-29 16:15:00
8:35 AM,32.0,32.0,100,30.10,0.8,West,10.4,-,N/A,Snow,Light Snow,260,2013-01-29 16:35:00
8:55 AM,32.0,32.0,100,30.12,0.2,West,9.2,-,N/A,Fog,Fog,270,2013-01-29 16:55:00
9:15 AM,32.0,32.0,100,30.13,0.2,West,8.1,-,N/A,Fog,Fog,260,2013-01-29 17:15:00
9:35 AM,32.0,32.0,100,30.14,0.2,West,8.1,-,N/A,Fog,Fog,260,2013-01-29 17:35:00
9:55 AM,32.0,32.0,100,30.15,7.0,WSW,12.7,-,N/A,,Overcast,250,2013-01-29 17:55:00
10:15 AM,33.8,32.0,93,30.15,10.0,WSW,13.8,-,N/A,,Overcast,250,2013-01-29 18:15:00
10:35 AM,33.8,32.0,93,30.16,10.0,West,12.7,-,N/A,,Overcast,260,2013-01-29 18:35:00
10:55 AM,33.8,32.0,93,30.17,10.0,West,10.4,-,N/A,,Overcast,260,2013-01-29 18:55:00
11:15 AM,33.8,32.0,93,30.19,5.0,West,11.5,-,N/A,Snow,Light Snow,260,2013-01-29 19:15:00
11:35 AM,33.8,32.0,93,30.19,4.0,West,12.7,-,N/A,,Overcast,270,2013-01-29 19:35:00
11:55 AM,33.8,32.0,93,30.20,3.0,West,11.5,-,N/A,Snow,Light Snow,270,2013-01-29 19:55:00
12:15 PM,33.8,32.0,93,30.20,4.0,West,10.4,-,N/A,Snow,Light Snow,270,2013-01-29 20:15:00
12:35 PM,33.8,32.0,93,30.20,4.0,West,10.4,-,N/A,,Overcast,270,2013-01-29 20:35:00
12:55 PM,33.8,32.0,93,30.20,7.0,WNW,9.2,-,N/A,,Overcast,290,2013-01-29 20:55:00
1:15 PM,33.8,33.8,100,30.21,4.0,WNW,5.8,-,N/A,Snow,Light Snow,290,2013-01-29 21:15:00
1:35 PM,33.8,33.8,100,30.21,10.0,WNW,8.1,-,N/A,,Overcast,290,2013-01-29 21:35:00
1:55 PM,35.6,33.8,93,30.21,7.0,West,11.5,-,N/A,Snow,Light Snow,280,2013-01-29 21:55:00
2:15 PM,35.6,33.8,93,30.21,10.0,WNW,8.1,-,N/A,,Overcast,290,2013-01-29 22:15:00
2:35 PM,35.6,33.8,93,30.22,10.0,West,6.9,-,N/A,,Overcast,280,2013-01-29 22:35:00
2:55 PM,35.6,33.8,93,30.23,10.0,West,4.6,-,N/A,,Overcast,280,2013-01-29 22:55:00
3:15 PM,35.6,33.8,93,30.23,10.0,Calm,Calm,-,N/A,,Light Drizzle,0,2013-01-29 23:15:00
3:35 PM,35.6,32.0,87,30.24,10.0,SSW,4.6,-,N/A,,Overcast,200,2013-01-29 23:35:00
3:55 PM,35.6,32.0,87,30.24,10.0,SSW,3.5,-,N/A,,Light Drizzle,210,2013-01-29 23:55:00
4:15 PM,35.6,32.0,87,30.25,10.0,West,4.6,-,N/A,,Light Drizzle,260,2013-01-30 00:15:00
4:35 PM,35.6,33.8,93,30.26,10.0,WSW,3.5,-,N/A,Rain,Light Rain,240,2013-01-30 00:35:00
4:55 PM,35.6,32.0,87,30.26,5.0,Calm,Calm,-,N/A,Rain,Light Rain,0,2013-01-30 00:55:00
5:15 PM,35.6,32.0,87,30.26,4.0,WSW,4.6,-,0.01,Snow,Light Snow,250,2013-01-30 01:15:00
5:35 PM,33.8,32.0,93,30.27,5.0,SW,4.6,-,0.02,Snow,Light Snow,220,2013-01-30 01:35:00
5:55 PM,33.8,32.0,93,30.27,5.0,SW,4.6,-,0.02,Snow,Light Snow,220,2013-01-30 01:55:00
6:15 PM,33.8,33.8,100,30.28,7.0,SW,3.5,-,N/A,Snow,Light Snow,220,2013-01-30 02:15:00
6:55 PM,35.6,33.8,93,30.28,10.0,SW,4.6,-,0.01,Rain,Light Rain,230,2013-01-30 02:55:00
7:15 PM,35.6,33.8,93,30.28,10.0,SW,4.6,-,N/A,Rain,Light Rain,230,2013-01-30 03:15:00
7:35 PM,35.6,33.8,93,30.28,10.0,SW,4.6,-,N/A,Rain,Light Rain,230,2013-01-30 03:35:00
7:55 PM,35.6,33.8,93,30.29,10.0,WSW,4.6,-,N/A,Rain,Light Rain,240,2013-01-30 03:55:00
8:15 PM,35.6,33.8,93,30.29,10.0,SW,4.6,-,0.01,Rain,Light Rain,230,2013-01-30 04:15:00
8:35 PM,35.6,33.8,93,30.28,10.0,SW,5.8,-,0.01,,Light Drizzle,230,2013-01-30 04:35:00
8:55 PM,35.6,33.8,93,30.28,10.0,WSW,6.9,-,0.01,,Light Drizzle,240,2013-01-30 04:55:00
9:15 PM,35.6,33.8,93,30.27,10.0,WSW,6.9,-,N/A,,Overcast,240,2013-01-30 05:15:00
9:35 PM,35.6,33.8,93,30.27,10.0,SW,6.9,-,N/A,,Overcast,230,2013-01-30 05:35:00
9:55 PM,35.6,33.8,93,30.29,10.0,WSW,5.8,-,N/A,,Overcast,250,2013-01-30 05:55:00
10:15 PM,35.6,33.8,93,30.29,10.0,WSW,4.6,-,N/A,,Overcast,240,2013-01-30 06:15:00
10:35 PM,35.6,33.8,93,30.29,10.0,WSW,4.6,-,N/A,,Overcast,240,2013-01-30 06:35:00
10:55 PM,35.6,33.8,93,30.29,10.0,SW,6.9,-,N/A,,Overcast,220,2013-01-30 06:55:00
11:15 PM,35.6,33.8,93,30.28,10.0,SW,6.9,-,N/A,,Overcast,230,2013-01-30 07:15:00
11:35 PM,35.6,33.8,93,30.28,10.0,WSW,6.9,-,N/A,,Overcast,240,2013-01-30 07:35:00
11:55 PM,35.6,33.8,93,30.29,10.0,SW,4.6,-,N/A,,Overcast,230,2013-01-30 07:55:00